Hourly Weather Al Karnak

Today, 9 March, Tuesday

Time Temperature Precipitation Wind Pressure Humidity
00:00 +17°C° 0 mm 2 mps 751 mmHg 26%
01:00 +18°C° 0 mm 1 mps 751 mmHg 26%
02:00 +16°C° 0 mm 1 mps 750 mmHg 27%
03:00 +15°C° 0 mm 1 mps 750 mmHg 28%
04:00 +15°C° 0 mm 1 mps 750 mmHg 29%
05:00 +14°C° 0 mm 1 mps 751 mmHg 30%
06:00 +16°C° 0 mm 1 mps 751 mmHg 26%
07:00 +20°C° 0 mm 1 mps 751 mmHg 22%
08:00 +22°C° 0 mm 1 mps 752 mmHg 18%
09:00 +24°C° 0 mm 1 mps 752 mmHg 15%
10:00 +27°C° 0 mm 1 mps 751 mmHg 12%
11:00 +30°C° 0 mm 1 mps 751 mmHg 9%
12:00 +31°C° 0 mm 1 mps 751 mmHg 8%
13:00 +33°C° 0 mm 1 mps 750 mmHg 6%
14:00 +35°C° 0 mm 1 mps 749 mmHg 5%
15:00 +34°C° 0 mm 1 mps 749 mmHg 5%
16:00 +33°C° 0 mm 1 mps 749 mmHg 5%
17:00 +32°C° 0 mm 1 mps 749 mmHg 5%
18:00 +29°C° 0 mm 1 mps 749 mmHg 6%
19:00 +27°C° 0 mm 2 mps 749 mmHg 8%
20:00 +24°C° 0 mm 2 mps 750 mmHg 10%
21:00 +23°C° 0 mm 2 mps 750 mmHg 12%
22:00 +21°C° 0 mm 1 mps 750 mmHg 14%
23:00 +20°C° 0 mm 1 mps 750 mmHg 16%

Tomorrow, 10 March, Wednesday

Time Temperature Precipitation Wind Pressure Humidity
00:00 +20°C° 0 mm 1 mps 750 mmHg 17%
01:00 +17°C° 0 mm 0 mps 750 mmHg 17%
02:00 +17°C° 0 mm 0 mps 750 mmHg 17%
03:00 +16°C° 0 mm 0 mps 750 mmHg 17%
04:00 +18°C° 0 mm 1 mps 750 mmHg 17%
05:00 +18°C° 0 mm 1 mps 750 mmHg 16%
06:00 +21°C° 0 mm 1 mps 750 mmHg 14%
07:00 +24°C° 0 mm 1 mps 751 mmHg 11%
08:00 +27°C° 0 mm 1 mps 751 mmHg 9%
09:00 +29°C° 0 mm 1 mps 751 mmHg 8%
10:00 +31°C° 0 mm 2 mps 751 mmHg 6%
11:00 +35°C° 0 mm 2 mps 751 mmHg 5%
12:00 +36°C° 0 mm 2 mps 750 mmHg 5%
13:00 +37°C° 0 mm 2 mps 749 mmHg 5%
14:00 +37°C° 0 mm 1 mps 749 mmHg 5%
15:00 +38°C° 0 mm 2 mps 749 mmHg 5%
16:00 +37°C° 0 mm 2 mps 748 mmHg 5%
17:00 +37°C° 0 mm 2 mps 748 mmHg 6%
18:00 +34°C° 0 mm 2 mps 749 mmHg 8%
19:00 +30°C° 0 mm 2 mps 749 mmHg 10%
20:00 +27°C° 0 mm 3 mps 749 mmHg 12%
21:00 +26°C° 0 mm 2 mps 749 mmHg 17%
22:00 +25°C° 0 mm 2 mps 749 mmHg 22%
23:00 +23°C° 0 mm 1 mps 750 mmHg 27%

Day after tomorrow, 11 March, Thursday

Time Temperature Precipitation Wind Pressure Humidity
00:00 +22°C° 0 mm 1 mps 749 mmHg 29%
01:00 +22°C° 0 mm 1 mps 749 mmHg 30%
02:00 +19°C° 0 mm 0 mps 749 mmHg 32%
03:00 +19°C° 0 mm 0 mps 749 mmHg 33%
04:00 +18°C° 0 mm 0 mps 749 mmHg 34%
05:00 +20°C° 0 mm 1 mps 749 mmHg 35%
06:00 +21°C° 0 mm 0 mps 749 mmHg 31%
07:00 +24°C° 0 mm 0 mps 749 mmHg 26%
08:00 +26°C° 0 mm 0 mps 750 mmHg 21%
09:00 +29°C° 0 mm 0 mps 750 mmHg 17%
10:00 +33°C° 0 mm 1 mps 750 mmHg 13%
11:00 +36°C° 0 mm 1 mps 750 mmHg 10%
12:00 +37°C° 0 mm 1 mps 749 mmHg 8%
13:00 +39°C° 0 mm 1 mps 748 mmHg 7%
14:00 +41°C° 0 mm 2 mps 748 mmHg 5%
15:00 +40°C° 0 mm 2 mps 747 mmHg 6%
16:00 +40°C° 0 mm 1 mps 747 mmHg 6%
17:00 +39°C° 0 mm 1 mps 747 mmHg 6%
18:00 +37°C° 0 mm 2 mps 748 mmHg 7%
19:00 +34°C° 0 mm 3 mps 748 mmHg 8%
20:00 +31°C° 0 mm 3 mps 748 mmHg 9%
21:00 +30°C° 0 mm 3 mps 749 mmHg 10%
22:00 +28°C° 0 mm 3 mps 749 mmHg 11%
23:00 +26°C° 0 mm 3 mps 749 mmHg 12%

12 March, Friday

Time Temperature Precipitation Wind Pressure Humidity
00:00 +25°C° 0 mm 2 mps 749 mmHg 14%
01:00 +24°C° 0 mm 2 mps 749 mmHg 16%
02:00 +23°C° 0 mm 2 mps 749 mmHg 17%
03:00 +23°C° 0 mm 2 mps 749 mmHg 21%
04:00 +21°C° 0 mm 2 mps 749 mmHg 24%
05:00 +20°C° 0 mm 3 mps 749 mmHg 27%
06:00 +21°C° 0 mm 3 mps 750 mmHg 28%
07:00 +22°C° 0 mm 4 mps 751 mmHg 29%
08:00 +25°C° 0 mm 5 mps 751 mmHg 30%
09:00 +27°C° 0 mm 6 mps 751 mmHg 26%
10:00 +29°C° 0 mm 7 mps 751 mmHg 22%
11:00 +33°C° 0 mm 8 mps 751 mmHg 18%
12:00 +34°C° 0 mm 8 mps 750 mmHg 16%
13:00 +35°C° 0 mm 8 mps 750 mmHg 15%
14:00 +38°C° 0 mm 8 mps 749 mmHg 14%
15:00 +35°C° 0 mm 8 mps 749 mmHg 14%
16:00 +34°C° 0 mm 9 mps 749 mmHg 14%
17:00 +32°C° 0 mm 9 mps 749 mmHg 13%
18:00 +29°C° 0 mm 8 mps 749 mmHg 13%
19:00 +27°C° 0 mm 6 mps 750 mmHg 13%
20:00 +23°C° 0 mm 5 mps 751 mmHg 14%
21:00 +22°C° 0 mm 4 mps 751 mmHg 18%
22:00 +20°C° 0 mm 4 mps 751 mmHg 22%
23:00 +19°C° 0 mm 3 mps 751 mmHg 27%

13 March, Saturday

Time Temperature Precipitation Wind Pressure Humidity
00:00 +18°C° 0 mm 3 mps 751 mmHg 31%
01:00 +17°C° 0 mm 2 mps 751 mmHg 36%
02:00 +15°C° 0 mm 1 mps 751 mmHg 41%
03:00 +15°C° 0 mm 1 mps 751 mmHg 44%
04:00 +14°C° 0 mm 1 mps 751 mmHg 48%
05:00 +13°C° 0 mm 1 mps 751 mmHg 52%
06:00 +15°C° 0 mm 1 mps 751 mmHg 47%
07:00 +18°C° 0 mm 1 mps 752 mmHg 42%
08:00 +20°C° 0 mm 1 mps 752 mmHg 37%
09:00 +21°C° 0 mm 2 mps 752 mmHg 30%
10:00 +25°C° 0 mm 3 mps 752 mmHg 23%
11:00 +28°C° 0 mm 3 mps 752 mmHg 16%
12:00 +30°C° 0 mm 3 mps 751 mmHg 15%
13:00 +33°C° 0 mm 4 mps 750 mmHg 13%
14:00 +35°C° 0 mm 4 mps 749 mmHg 11%
15:00 +34°C° 0 mm 4 mps 749 mmHg 12%
16:00 +34°C° 0 mm 5 mps 749 mmHg 12%
17:00 +34°C° 0 mm 5 mps 749 mmHg 13%
18:00 +30°C° 0 mm 5 mps 749 mmHg 20%
19:00 +26°C° 0 mm 4 mps 749 mmHg 26%
20:00 +22°C° 0 mm 4 mps 750 mmHg 33%
21:00 +21°C° 0 mm 3 mps 750 mmHg 36%
22:00 +19°C° 0 mm 3 mps 750 mmHg 38%
23:00 +18°C° 0 mm 2 mps 750 mmHg 40%

14 March, Sunday

Time Temperature Precipitation Wind Pressure Humidity
00:00 +17°C° 0 mm 2 mps 749 mmHg 39%
01:00 +17°C° 0 mm 2 mps 749 mmHg 38%
02:00 +16°C° 0 mm 1 mps 748 mmHg 37%
03:00 +16°C° 0 mm 1 mps 748 mmHg 37%
04:00 +15°C° 0 mm 1 mps 748 mmHg 37%
05:00 +15°C° 0 mm 1 mps 748 mmHg 37%
06:00 +19°C° 0 mm 1 mps 748 mmHg 31%
07:00 +21°C° 0 mm 1 mps 748 mmHg 25%
08:00 +24°C° 0 mm 1 mps 749 mmHg 20%
09:00 +27°C° 0 mm 1 mps 748 mmHg 17%
10:00 +29°C° 0 mm 1 mps 748 mmHg 15%
11:00 +32°C° 0 mm 1 mps 748 mmHg 12%
12:00 +35°C° 0 mm 2 mps 747 mmHg 11%
13:00 +36°C° 0 mm 2 mps 746 mmHg 10%
14:00 +38°C° 0 mm 2 mps 745 mmHg 9%
15:00 +38°C° 0 mm 2 mps 745 mmHg 9%
16:00 +36°C° 0 mm 1 mps 745 mmHg 8%
17:00 +36°C° 0 mm 1 mps 744 mmHg 8%
18:00 +33°C° 0 mm 1 mps 745 mmHg 11%
19:00 +27°C° 0 mm 0 mps 745 mmHg 14%
20:00 +24°C° 0 mm 0 mps 745 mmHg 17%
21:00 +25°C° 0 mm 1 mps 745 mmHg 20%
22:00 +25°C° 0 mm 1 mps 745 mmHg 22%
23:00 +24°C° 0 mm 1 mps 745 mmHg 24%
Show more